Regional Weather Roundup
Issued by NWS Sioux Falls, SD

Home | Current Version | Previous Version | Text Only | Print | Product List | Glossary On
Versions: 1 2 3 4 5 6 7 8 9 10 11 12 13 14 15 16 17 18 19 20 21 22 23 24 25 26 27 28 29 30 31 32 33 34 35 36 37 38 39 40 41 42 43 44 45 46 47 48 49 50
000
ASUS43 KFSD 241502
RWRFSD

WEATHER ROUNDUP FOR SE SOUTH DAKOTA/SW MINNESOTA/NW IOWA
NATIONAL WEATHER SERVICE SIOUX FALLS SD
1000 AM CDT TUE APR 24 2018

NOTE: "FAIR" INDICATES FEW OR NO CLOUDS BELOW 12,000 FEET WITH NO
SIGNIFICANT WEATHER AND OR OBSTRUCTIONS TO VISIBILITY.


SDZ038>040-050-052>070-241600-
SOUTHEAST SOUTH DAKOTA

CITY           SKY/WX    TMP DP  RH WIND       PRES   REMARKS
BROOKINGS      LGT RAIN  43  38  82 NE16G24   30.23S
CHAMBERLAIN    CLOUDY    46  44  95 NE17      30.25R
HURON          CLOUDY    44  40  85 NE21G31   30.25R
MADISON        FAIR      45  45 100 NE21G31   30.22R
MITCHELL       LGT RAIN  48  42  80 NE17G24   30.21R
SIOUX FALLS    CLOUDY    50  40  68 N13       30.21R
WINNER         LGT RAIN  45  40  82 N32G39    30.24R
YANKTON        CLOUDY    50  46  86 NW13      30.18R
$$

MNZ071-072-080-081-089-090-097-098-241600-
SOUTHWEST MINNESOTA

CITY           SKY/WX    TMP DP  RH WIND       PRES   REMARKS
FAIRMONT       CLOUDY    53  43  68 NW10      30.17R
JACKSON        CLOUDY    54  41  62 NW8       30.18R
LUVERNE        CLOUDY    46  37  71 N13G20    30.21R
MARSHALL       CLOUDY    47  41  80 N16       30.23R
MONTEVIDEO     CLOUDY    50  37  62 NE22G30   30.23R
PIPESTONE      MOSUNNY  N/A N/A N/A NE14G24   30.21R
REDWOOD FALLS  CLOUDY    50  38  63 N10       30.19R
TRACY          CLOUDY    47  42  81 N14G20    30.21R
WINDOM         CLOUDY    50  32  50 NW16      30.18R
WORTHINGTON    CLOUDY    45  40  82 N16       30.20R
$$

IAZ001>003-012>014-020>022-031-032-NEZ013-014-SDZ071-241600-
NORTHWEST IOWA

CITY           SKY/WX    TMP DP  RH WIND       PRES   REMARKS
CHEROKEE       CLOUDY    55  45  69 N3        30.16S
DENISON        MOSUNNY   61  45  55 CALM      30.16S
ESTHERVILLE    MOSUNNY   54  45  71 N9        30.16R
LE MARS        CLOUDY    52  43  71 MISG      30.18R
ORANGE CITY    CLOUDY    54  45  71 N5        30.18R
SHELDON        CLOUDY    52  45  76 N5        30.17R
SIOUX CITY     CLOUDY    54  42  64 NW10      30.17R
SPENCER        CLOUDY    60  43  53 N6        30.17R
STORM LAKE     PTSUNNY   61  41  48 NE7       30.15S
$$

ABBREVIATIONS USED IN REMARKS
   TC - TEMPERATURE IN CELSIUS
  WCI - WIND CHILL INDEX
   HX - HEAT INDEX
  VSB - VISIBILITY




USA.gov is the U.S. government's official web portal to all federal, state and local government web resources and services.